Back to catalog

STARLINK-11535

AliveCommunicationsVLEO
NORAD 62595·PAYLOAD·🇺🇸 United States

Launched Jan 13, 2025 from Cape Canaveral Space Force Station

Loading…

Next Passes (next 24 hours)

TLE

FreshSource: CelesTrak SupGP

Epoch: Sep 14, 2026, 23:00 UTC

1 62595C 25008J   26257.95881944  .00109060  00000+0  84682-3 0  2575
2 62595  43.0008  64.9195 0001785 274.7888 161.3562 15.70792105    15

Track STARLINK-11535 in real time with AllMySat

Download on the App Store